006  
ASUS42 KFFC 271010  
RWRGA  
WEATHER ROUNDUP FOR GEORGIA  
NATIONAL WEATHER SERVICE PEACHTREE CITY GA  
600 AM EDT MON MAR 27 2017  
 
NOTE: "FAIR" INDICATES FEW OR NO CLOUDS BELOW 12,000 FEET WITH NO  
SIGNIFICANT WEATHER AND/OR S TO VISIBILITY
.  
 
* = USE WITH CAUTION. THE STATIONS MARKED WITH AN ASTERISK MAY NOT  
REPORT WEATHER SUCH AS PRECIPITATION, FOG, OR THUNDER AND ARE NOT  
QUALITY CONTROLLED BY NWS.  
 
THE REMARK "TC" DENOTES TEMPERATURE READING IN DEGREES CELSIUS.  
 
GAZ001>058-271100-  
NORTH GEORGIA  
 
CITY SKY/WX TMP DP RH WIND PRES REMARKS
 
ATLANTA PTCLDY 60 56 86 S3 30.06R  
ATHENS PTCLDY 60 57 89 S5 30.06S  
CHAMBLEE PTCLDY 57 53 86 S3 30.05R  
PEACHTREE CITY CLEAR 52 52 100 CALM 30.07R  
ROME PTCLDY 55 51 86 CALM 30.03R  
WEST ATLANTA PTCLDY 55 52 89 CALM 30.06R  
GAINESVILLE CLEAR 56 54 93 CALM 30.07S  
CARTERSVILLE PTCLDY 52 51 97 CALM 30.05R  
 
 
CITY SKY/WX TMP DP RH WIND PRES REMARKS
 
DALTON* PTCLDY 52 52 100 CALM 30.03R  
MARIETTA CLEAR 56 53 89 S3 30.05R  
CANTON* CLEAR 54 50 87 CALM 30.07R  

 
 
GAZ059>098-102>109-271100-  
CENTRAL GEORGIA  
 
CITY SKY/WX TMP DP RH WIND PRES REMARKS
 
AUGUSTA-BUSH CLEAR 58 56 93 CALM 30.09R  
AUGUSTA-DANIEL CLEAR 60 56 86 SE3 30.09R  
COLUMBUS CLOUDY 65 61 87 CALM 30.06R  
MACON PTCLDY 60 56 86 SE5 30.07R  
ROBINS AFB PTCLDY 60 58 91 S3 30.07R  
 
 
CITY SKY/WX TMP DP RH WIND PRES REMARKS
 
LAGRANGE* CLOUDY 63 63 100 CALM 30.07R  
SYLVANIA* PTCLDY N/A N/A N/A CALM 30.11R FOG  
MILLEDGEVILLE* CLEAR 61 61 100 CALM 30.08R  

 
 
GAZ099>101-110>166-271100-  
SOUTH GEORGIA  
 
CITY SKY/WX TMP DP RH WIND PRES REMARKS
 
SAVANNAH PTCLDY 58 55 90 CALM 30.11R  
VALDOSTA CLEAR 55 54 96 CALM 30.08R FOG  
ALMA CLOUDY 61 60 97 SE3 30.09R  
ST SIMONS CLEAR 63 60 90 CALM 30.09R  
FT STEWART PTCLDY 55 54 94 CALM 30.08R  
ALBANY CLEAR 61 60 97 CALM 30.09R  
HUNTER AFB CLEAR 60 60 100 CALM 30.08R  
MOODY AFB CLEAR 58 56 93 CALM 30.07R  
BRUNSWICK FOG 55 55 100 CALM 30.11R VSB 1/2  
 
 
CITY SKY/WX TMP DP RH WIND PRES REMARKS
 
BAINBRIDGE* CLEAR 61 61 100 CALM 30.07R  
MOULTRIE* CLEAR 61 59 94 CALM 30.09R  
VIDALIA* CLOUDY 63 61 94 CALM 30.09S  
WAYCROSS* PTCLDY 60 60 100 CALM 30.09R  
DOUGLAS* PTCLDY 61 59 94 CALM 30.10R  

 
 
 
CLICK HERE TO GO TO PREVIOUS BULLETINS.

The Nexlab GA Page Main Text Page